Location: Bednik
(45.3500°N, 16.3833°E)
Time: 04:23:25
(UTC+00:00)

Cosmos 389 Rocket - Pass Details

Date: 08 August 2020
Orbit: 443 x 475 km, 81.1° (Epoch: 19 September)

Event Time Altitude Azimuth Distance (km) Brightness Sun altitude
Rises 19:15:50 0° 349° (N) 2,453 6.9 -10.6°
Reaches altitude 10° 19:17:54 10° 350° (N) 1,579 5.9 -10.9°
Maximum altitude 19:21:21 88° 74° (ENE) 455 2.3 -11.4°
Enters shadow 19:24:35 12° 170° (S) 1,485 4.6 -11.8°
